SCP
0 0 0 0 0 0 0 0 0 0 0 0 0 0 0 0 0 0 0 0 0 0 0 0 0 0 0 0 0 0 0 0 0 0 0 0 0 0
0 0 0 0 0 0 0 0 0 0 0 0 0 0 0 0 0 0 0 0 0 0 0 0 0 0 0 0 0 0 0 0 0 0 0 0 0 0
0 0 0 0 0 0 0 0 0 0 0 0 0 0 0 0 0 0 0 0 0 0 0 0 0 0 0 0 0 0 0 0 0 0 0 0 0 0
0 0 0 0 0 0 0 0 0 0 0 0 0 0 0 0 0 0 0 0 0 0 0 0 0 0 0 0 0 0 0 0 0 0 0 0 0 0
0 0 0 0 0 0 0 0 0 0 0 0 0 0 0 0 0 0 0 0 0 0 0 0 0 0 0 0 0 0 0 0 0 0 0 0 0 0
0 0 0 0 0 0 0 0 0 0 0 0 0 0 0 0 0 0 0 0 0 0 0 0 0 0 0 0 0 0 0 0 0 0 0 0 0 0
0 0 0 0 0 0 0 0 0 0 0 0 0 0 0 0 0 0 0 0 0 0 0 0 0 0 0 0 0 0 0 0 0 0 0 0 0 0
0 0 0 0 0 0 0 0 0 0 0 0 0 0 0 0 0 0 0 0 0 0 0 0 0 0 0 0 0 0 0 0 0 0 0 0 0 0
0 0 0 0 0 0 0 0 0 0 0 0 0 0 0 0 0 0 0 0 0 0 0 0 0 0 0 0 0 0 0 0 0 0 0 0 0 0
0 0 0 0 0 0 0 0 0 0 0 0 0 0 0 0 0 0 0 0 0 0 0 0 0 0 0 0 0 0 0 0 0 0 0 0 0 0
0 0 0 0 0 0 0 0 0 0 0 0 0 0 0 0 0 0 0 0 0 0 0 0 0 0 0 0 0 0 0 0 0 0 0 0 0 0
0 0 0 0 0 0 0 0 0 0 0 0 0 0 0 0 0 0 0 0 0 0 0 0 0 0 0 0 0 0 0 0 0 0 0 0 0 0
0 0 0 0 0 0 0 0 0 0 0 0 0 0 0 0 0 0 0 0 0 0 0 0 0 0 0 0 0 0 0 0 0 0 0 0 0 0
0 0 0 0 0 0 0 0 0 0 0 0 0 0 0 0 0 0 0 0 0 0 0 0 0 0 0 0 0 0 0 0 0 0 0 0 0 0
0 0 0 0 0 0 0 0 0 0 0 0 0 0 0 0 0 0 0 0 0 0 0 0 0 0 0 0 0 0 0 0 0 0 0 0 0 0
0 0 0 0 0 0 0 0 0 0 0 0 0 0 0 0 0 0 0 0 0 0 0 0 0 0 0 0 0 0 0 0 0 0 0 0 0 0
0 0 0 0 0 0 0 0 0 0 0 0 0 0 0 0 0 0 0 0 0 0 0 0 0 0 0 0 0 0 0 0 0 0 0 0 0 0
0 0 0 0 0 0 0 0 0 0 0 0 0 0 0 0 0 0 0 0 0 0 0 0 0 0 0 0 0 0 0 0 0 0 0 0 0 0
0 0 0 0 0 0 0 0 0 0 0 0 0 0 0 0 0 0 0 0 0 0 0 0 0 0 0 0 0 0 0 0 0 0 0 0 0 0
0 0 0 0 0 0 0 0 0 0 0 0 0 0 0 0 0 0 0 0 0 0 0 0 0 0 0 0 0 0 0 0 0 0 0 0 0 0
0 0 0 0 0 0 0 0 0 0 0 0 0 0 0 0 0 0 0 0 0 0 0 0 0 0 0 0 0 0 0 0 0 0 0 0 0 0
0 0 0 0 0 0 0 0 0 0 0 0 0 0 0 0 0 0 0 0 0 0 0 0 0 0 0 0 0 0 0 0 0 0 0 0 0 0
0 0 0 0 0 0 0 0 0 0 0 0 0 0 0 0 0 0 0 0 0 0 0 0 0 0 0 0 0 0 0 0 0 0 0 0 0 0
Wind_Speed
4 5 4 3 3 3 3 3 3 4 4 4 3 2 1 1 2 3 3 6 9 10 12 13 13 13 14 15 15 15 15 16 16 17 17 18 18 18
3 4 4 4 4 4 4 3 3 3 4 4 4 4 4 5 6 4 5 10 11 12 13 14 13 13 15 16 15 15 16 16 16 17 17 18 18 18
6 6 5 4 4 5 5 4 4 4 4 5 4 4 5 5 5 4 6 6 6 11 12 12 13 14 15 16 16 16 15 15 16 16 17 17 17 18
5 5 6 5 5 5 5 5 4 4 4 6 6 6 6 6 5 6 7 7 6 10 11 11 12 14 14 15 15 14 14 14 15 16 16 16 17 17
4 5 5 5 5 5 5 5 4 5 4 5 6 5 5 6 5 6 7 5 8 9 9 9 11 13 14 15 15 14 13 13 13 14 15 16 16 17
4 4 4 4 4 5 5 5 6 6 6 6 6 6 5 5 5 5 6 5 6 8 7 7 9 11 13 14 15 14 13 12 12 13 13 14 15 16
4 4 4 3 2 3 5 5 6 6 7 6 7 6 5 6 5 4 6 6 6 5 4 6 5 4 5 8 11 12 11 11 12 12 12 12 13 13
5 5 6 0 2 5 7 9 9 8 7 7 7 7 7 6 5 6 5 6 6 4 4 6 5 4 4 3 4 7 9 10 11 11 12 12 12 13
4 4 6 5 5 6 9 11 9 10 10 8 8 8 8 7 6 7 6 7 7 6 5 6 4 4 4 3 4 6 8 10 10 11 12 12 12 12
4 3 3 3 5 6 8 8 8 7 7 5 6 7 8 6 5 6 7 8 7 5 4 4 4 4 5 2 6 9 10 10 11 12 12 12 12 12
4 3 3 3 4 6 7 8 9 8 9 9 10 12 14 14 10 5 6 6 7 6 3 3 4 5 4 3 3 7 10 11 12 12 12 12 12 11
5 3 1 2 5 6 6 8 9 8 9 11 10 9 9 9 10 7 6 5 6 5 3 3 3 4 4 3 3 3 4 7 10 11 12 12 10 6
6 5 2 4 9 10 8 7 9 9 9 9 8 7 5 4 4 4 4 4 5 5 4 3 3 3 3 4 4 3 3 4 4 4 6 9 9 6
6 6 6 12 14 14 10 10 13 11 7 6 6 5 5 4 4 4 4 4 4 5 5 3 3 3 3 4 4 4 5 4 3 3 4 5 5 6
6 11 14 15 13 10 9 11 9 6 5 5 5 5 5 4 4 3 3 3 4 4 3 2 3 3 2 3 4 4 4 4 3 4 4 4 3 2
8 12 14 13 9 9 9 6 4 4 4 4 5 5 4 4 4 3 3 3 3 3 2 2 2 2 2 4 3 4 4 4 4 4 4 3 3 3
9 8 6 5 4 3 3 4 3 3 4 4 4 4 4 4 4 3 2 3 2 3 3 2 2 2 2 1 3 5 5 4 4 4 4 3 3 4
7 6 5 4 4 4 4 4 4 4 4 4 4 4 4 4 4 4 3 3 3 3 3 3 2 2 1 0 1 4 5 5 5 5 4 3 3 3
5 4 4 4 4 5 5 4 4 5 5 5 5 5 5 5 4 4 4 3 3 3 3 2 2 2 3 3 2 1 4 5 5 5 4 3 3 3
3 3 4 4 5 5 5 5 5 5 5 5 5 5 5 5 5 4 3 4 4 3 3 2 2 2 2 2 2 1 3 4 4 5 5 3 2 3
5 5 5 4 5 5 5 5 6 5 6 6 6 7 6 5 5 4 3 5 4 4 4 3 3 3 2 1 0 1 1 2 3 3 5 4 3 4
5 5 5 5 5 6 6 6 6 6 7 7 7 8 7 6 6 6 5 3 3 4 4 3 3 2 1 1 1 0 1 1 1 3 5 4 3 3
4 5 6 6 6 6 7 8 9 8 8 8 9 9 9 7 5 5 5 4 4 5 5 4 3 2 2 1 1 1 1 2 1 1 1 2 2 3
Wind_Direction
31 29 9 357 1 350 339 337 333 326 324 339 344 345 354 351 250 276 288 280 268 255 255 258 263 270 276 279 282 284 284 285 285 285 285 285 285 285
19 28 13 2 354 343 338 339 340 329 320 330 332 344 347 329 316 317 303 294 275 260 256 256 255 257 264 271 275 279 281 283 284 285 285 285 285 284
16 15 10 6 6 345 351 345 343 343 325 317 317 320 321 313 307 302 294 283 278 275 268 259 251 251 257 264 270 274 276 279 281 283 285 287 287 286
12 5 2 4 1 357 347 337 337 325 321 317 316 313 314 305 300 299 302 303 302 296 279 258 250 249 253 258 263 266 268 270 275 279 282 284 285 286
7 1 356 359 0 358 332 335 331 332 323 309 306 304 304 304 310 308 307 304 303 301 290 266 256 256 257 258 259 260 260 261 265 271 276 280 282 283
0 352 350 1 7 350 332 345 340 329 318 313 306 306 307 315 324 319 313 310 304 305 308 298 275 263 260 260 260 259 257 257 258 260 265 270 274 277
350 343 333 344 351 298 317 330 323 319 316 314 312 314 322 330 329 319 314 312 304 302 314 303 297 285 274 263 260 257 255 255 257 260 263 265 266 268
342 336 320 343 313 298 298 296 287 289 298 303 304 310 313 316 319 315 315 318 314 313 315 302 300 297 288 274 237 239 246 254 260 263 265 266 266 266
324 324 334 2 18 357 332 314 299 286 267 265 283 292 299 308 318 316 316 313 303 299 303 296 297 297 292 294 219 228 241 251 258 263 267 268 268 269
320 322 333 7 30 354 327 319 315 312 297 275 265 277 288 296 301 298 296 298 294 296 304 294 303 309 312 289 228 232 243 252 260 266 269 271 272 273
333 349 341 1 28 350 326 320 319 317 323 322 292 278 277 279 275 282 289 300 308 311 318 301 308 314 300 282 251 242 253 262 268 269 271 272 273 277
333 330 64 341 337 336 325 316 313 319 325 317 309 297 283 276 266 244 259 283 299 304 324 321 307 324 312 306 320 306 273 276 275 273 273 273 273 275
331 330 360 339 330 324 313 288 290 307 306 301 304 304 300 292 281 256 240 247 275 286 301 321 308 316 297 300 305 312 313 306 301 292 283 279 276 264
315 329 334 325 318 311 302 288 298 305 294 304 311 312 313 311 303 290 271 254 249 261 276 283 274 298 304 305 302 312 317 317 323 320 316 304 288 279
317 325 316 308 307 300 296 300 302 293 302 315 318 316 312 306 305 303 299 286 282 280 283 277 274 287 295 295 305 314 317 320 329 327 324 331 338 339
343 322 312 302 292 281 291 296 286 292 307 315 315 312 314 315 311 314 315 309 305 299 280 277 267 272 295 309 316 322 328 323 325 328 327 338 3 13
325 308 309 322 335 336 332 329 322 328 331 323 321 324 327 331 328 326 326 328 329 323 326 315 289 236 221 307 331 335 335 336 333 336 341 352 18 25
312 303 316 335 342 345 346 343 344 344 339 331 332 337 341 340 334 332 337 339 337 329 326 324 334 335 315 46 359 334 336 341 343 350 357 359 11 15
289 302 333 342 343 343 346 348 345 341 338 340 344 345 345 340 335 337 344 344 342 336 327 328 345 353 358 353 321 346 339 338 347 356 3 7 6 1
334 344 352 350 348 345 348 351 346 347 351 347 346 342 340 337 335 338 347 353 341 337 335 339 344 340 339 321 311 360 2 352 351 353 348 353 15 3
4 357 351 354 354 349 350 350 347 352 357 351 348 340 336 335 335 339 352 357 349 341 342 330 308 291 272 284 12 51 48 18 29 9 344 346 360 9
8 353 345 357 0 354 355 353 356 3 0 353 344 337 334 334 339 343 348 348 351 345 335 320 308 306 321 3 16 100 149 165 76 62 40 24 12 14
10 350 346 4 8 360 357 1 9 5 358 350 341 334 331 333 334 340 343 349 360 355 341 332 331 334 343 0 17 26 106 160 171 124 64 22 65 71